Flag for U.S.A. Weather past 2 weeks in Minot, North Dakota, U.S.A.

Now
62 °F

Fog.


Feels Like: 62 °F
Forecast: 60 / 93 °F
Wind: 5 mph from Southwest

Location: Minot International Airport

Current Time: Sep 2, 2015 at 8:53:36 AM

Latest Report: Sep 2, 2015 at 8:02 AM


Visibility: 1 mi

Pressure: 29.80 "Hg

Humidity: 93%

Dew point: 60 °F

Location of MinotLocation

Historic Weather in Minot — Graph

°F

Minot temperature yesterday

Maximum temperature yesterday: 88 °F (at 3:54 PM)
Minimum temperature yesterday: 55 °F (at 5:54 AM)
Average temperature yesterday: 71 °F

Past Weeks' High & Low Weather Summary

 TemperatureHumidityPressure
High94 °F (Aug 29, 3:54 PM)93% (Aug 18, 6:54 AM)30.20 "Hg (Aug 18, 6:54 AM)
Low43 °F (Aug 24, 5:54 AM)21% (Aug 29, 3:54 PM)29.47 "Hg (Aug 21, 10:54 PM)
Average66 °F61%29.85 "Hg
* Reported Aug 18 6:54 AM — Sep 2 6:54 AM, Minot, Weather by CustomWeather, © 2015

Note: Actual official high and low records may vary slightly from our data, if they occured in-between our weather recording intervals... More about our weather records

Advertising

Minot weather history for previous 24 hours

 ConditionsComfort  
Time TempWeatherWind HumidityBarometerVisibility
6:54 AM
Wed, Sep 2
61 °FFog.3 mph93%29.75 "Hg2 mi
5:54 AM62 °FClear.5 mph90%29.75 "Hg7 mi
4:54 AM62 °FClear.5 mph90%29.74 "Hg7 mi
3:54 AM61 °FClear.No wind93%29.74 "Hg8 mi
2:54 AM64 °FClear.No wind84%29.74 "Hg10 mi
1:54 AM68 °FClear.5 mph82%29.74 "Hg10 mi
12:54 AM67 °FClear.7 mph79%29.73 "Hg10 mi
11:54 PM
Tue, Sep 1
69 °FClear.5 mph70%29.74 "Hg10 mi
10:54 PM70 °FClear.6 mph66%29.75 "Hg10 mi
9:54 PM72 °FClear.7 mph59%29.75 "Hg10 mi
8:54 PM74 °FSunny.6 mph52%29.75 "Hg10 mi
7:54 PM82 °FSunny.6 mph38%29.74 "Hg10 mi
6:54 PM86 °FSunny.12 mph32%29.73 "Hg10 mi
5:54 PM88 °FSunny.15 mph28%29.73 "Hg10 mi
3:54 PM88 °FSunny.10 mph34%29.75 "Hg10 mi
2:54 PM86 °FSunny.14 mph33%29.77 "Hg10 mi
1:54 PM85 °FSunny.12 mph35%29.77 "Hg10 mi
12:54 PM83 °FSunny.10 mph38%29.79 "Hg10 mi
11:54 AM80 °FSunny.12 mph42%29.81 "Hg10 mi
10:54 AM76 °FSunny.9 mph48%29.81 "Hg10 mi
9:54 AM72 °FSunny.6 mph52%29.81 "Hg10 mi
8:54 AM65 °FSunny.9 mph59%29.81 "Hg10 mi
Weather by CustomWeather, © 2015

See weather overviewHow to use our weather pages